Location: ???? ?????????
(44.3677°N, 135.2344°E)
Time: 06:45:57
(UTC+00:00)

Meteor 2-16 Rocket - Pass Details

Date: 19 May 2025
Orbit: 941 x 956 km, 82.6° (Epoch: 15 June)

Event Time Altitude Azimuth Distance (km) Brightness Sun altitude
Exits shadow 16:32:00 43° 187° (S) 1,311 4.7 -22.0°
Maximum altitude 16:34:12 90° 209° (SSW) 952 4.4 -21.9°
Drops below altitude 10° 16:40:19 10° 9° (N) 2,670 7.8 -21.4°
Sets 16:42:49 0° 9° (N) 3,618 8.8 -21.2°
